Regional Weather Roundup
Issued by NWS

Home | Current Version | Previous Version | Graphics & Text | Print | Product List | Glossary On
Versions: 1 2 3 4 5 6 7 8 9 10 11 12 13 14 15 16 17 18 19 20 21 22 23 24 25 26 27
000
ASUS45 KPSR 261610
RWRAZ

ARIZONA HOURLY REGIONAL WEATHER ROUNDUP
NATIONAL WEATHER SERVICE PHOENIX AZ
900 AM MST FRI AUG 26 2016

NOTE: FAIR INDICATES FEW OR NO CLOUDS BELOW 12,000 FEET WITH NO
SIGNIFICANT WEATHER AND/OR OBSTRUCTIONS TO VISIBILITY.

AZZ001>003-036-261700-
NORTHWEST ARIZONA

CITY           SKY/WX    TMP DP  RH WIND       PRES   REMARKS
BULLHEAD CITY  SUNNY     93  50  22 SW3       29.88S
KINGMAN        MOSUNNY   79  53  40 E23       30.07R
$$

AZZ004>008-015-016-018-261700-
NORTH CENTRAL ARIZONA

CITY           SKY/WX    TMP DP  RH WIND       PRES   REMARKS
GRAND CANYON     N/A     60  50  69 E5        30.30S
PRESCOTT       MOSUNNY   67  51  56 SE12      30.21S
FLAGSTAFF      SUNNY     58  50  75 VRB3      30.33S
PAYSON         PTSUNNY   59  55  88 CALM      30.27R
PAGE           SUNNY     68  56  65 NE6       30.18S
$$

AZZ009>014-017-261700-
NORTHEAST ARIZONA

CITY           SKY/WX    TMP DP  RH WIND       PRES   REMARKS
WINSLOW        SUNNY     65  56  72 VRB3      30.24S
SAINT JOHNS    MOSUNNY   63  51  65 VRB6      30.28S
WINDOW ROCK    CLOUDY    59  48  67 N3        30.33S
SHOW LOW       PTSUNNY   57  48  72 E6        30.32F
$$

AZZ023-261700-
GREATER PHOENIX AREA

CITY           SKY/WX    TMP DP  RH WIND       PRES   REMARKS
PHOENIX        MOSUNNY   85  58  39 NE18      29.95S
BUCKEYE        PTSUNNY   84  55  37 E18       29.96R
GLENDALE       PTSUNNY   84  61  45 NE7       29.98S
LUKE AFB       PTSUNNY   85  59  40 NE12      29.95F
DEER VALLEY    MOSUNNY   82  57  42 E9G20     29.98S
SCOTTSDALE     MOSUNNY   83  55  38 E7        30.00R
MESA-FALCON    MOSUNNY  N/A N/A N/A N14       29.95R
MESA-GATEWAY   PTSUNNY   84  57  39 E13       29.99S
CHANDLER       PTSUNNY   86  57  37 NE17      29.97R
$$

AZZ027-028-261700-
SOUTHWEST MARICOPA COUNTY AND PINAL COUNTY

CITY           SKY/WX    TMP DP  RH WIND       PRES   REMARKS
CASA GRANDE    MOSUNNY   82  61  47 E15       30.00R
GILA BEND      PTSUNNY   91  56  30 E13       29.92R
$$

AZZ503-504-507>509-261700-
SOUTHEAST ARIZONA

CITY           SKY/WX    TMP DP  RH WIND       PRES   REMARKS
TUCSON         MOSUNNY   83  63  50 S7        30.06R
DAVIS-MONTHAN  SUNNY     81  62  52 S10       30.05R
RYAN FIELD     MOSUNNY   82  66  57 N5        30.05R
NOGALES        MOSUNNY   77  61  57 S7        30.14R
SIERRA VISTA   SUNNY     74  57  53 E6        30.20R
DOUGLAS        SUNNY     74  59  59 S7        30.16R
SAFFORD        MOSUNNY   78  59  51 W8        30.08R
$$

AZZ020-021-025-026-031-261700-
SOUTHWEST ARIZONA

CITY           SKY/WX    TMP DP  RH WIND       PRES   REMARKS
YUMA           PTSUNNY   87  76  69 SE14      29.85R
$$

CAZ031-033-041-043-047-048-061-261700-
SOUTHERN CALIFORNIA

CITY           SKY/WX    TMP DP  RH WIND       PRES   REMARKS
DOWNTOWN L.A.  CLOUDY    68  57  68 CALM      29.96R
L.A. AIRPORT   CLOUDY    67  56  67 SE7       29.97R
SAN DIEGO      PTSUNNY   66  58  75 S8        30.00R
BURBANK        CLOUDY    65  58  78 S5        29.97R
ONTARIO        CLOUDY    64  57  78 SW5       29.98R
RIVERSIDE      CLOUDY    64  58  80 CALM      29.98S HAZE
PALM SPRINGS   MOSUNNY   84  50  30 CALM      29.89R
EL CENTRO NAS  MOSUNNY   86  74  67 E3        29.84R
IMPERIAL       SUNNY     88  75  65 SE6       29.82R
BLYTHE         SUNNY     88  66  48 SE6       29.87R
NEEDLES        SUNNY     94  51  23 S16       29.89R
$$

NVZ020-UTZ003-261700-
SOUTHERN NEVADA-UTAH

CITY           SKY/WX    TMP DP  RH WIND       PRES   REMARKS
LAS VEGAS      MOSUNNY   85  48  27 NE8       29.94S
SALT LAKE CITY MOSUNNY   74  42  31 S16       30.03S
$$

NMZ009-TXZ055-261700-
NEW MEXICO-WEST TEXAS

CITY           SKY/WX    TMP DP  RH WIND       PRES   REMARKS
ALBUQUERQUE    CLOUDY    68  55  63 NW5       30.24R
EL PASO        MOSUNNY   75  58  55 SE5       30.15R
$$


........................KEY........................
SKY/WX - SKY CONDITION/WEATHER
TMP    - TEMPERATURE IN FAHRENHEIT
DP     - DEW POINT IN FAHRENHEIT
RH     - RELATIVE HUMIDITY IN PERCENT
WIND   - DIRECTION AND SPEED IN MILES PER HOUR (MPH)
VRB    - VARIABLE WIND DIRECTION
PRES   - MEAN SEA LEVEL PRESSURE IN INCHES OF MERCURY
         F - FALLING PRESSURE   R - RISING PRESSURE
         S - STEADY PRESSURE
VSB    - VISIBILITY IN MILES
HX     - HEAT INDEX IN FAHRENHEIT
WCI    - WIND CHILL INDEX IN FAHRENHEIT
TC     - TEMPERATURE IN CELSIUS WHICH IS ALSO KNOWN AS
         TEMPERATURE IN CENTIGRADE
AFB    - AIR FORCE BASE
         LUKE AFB IS LUKE AIR FORCE BASE
         DAVIS-MONTHAN IS DAVIS-MONTHAN AIR FORCE BASE
NAS    - NAVAL AIR STATION
         EL CENTRO NAS IS EL CENTRO NAVAL AIR STATION
N/A    - NOT AVAILABLE





USA.gov is the U.S. government's official web portal to all federal, state and local government web resources and services.